^^
Datos históricos de la estación: Murcia-Puente Tocinos
Diario Informe para Enero 23, 2022 Unidades:  Métrico    Ingés   Ambas
Diario Semanal Mensual Anual
  Máxima: Mínima: Promedio:
Temperatura: 11.7 °C 8.6 °C 9.8 °C
Punto de rocio: 9.7 °C 7.1 °C 8.2 °C
Humedad: 97% 76% 90%
Velocidad viento: 10km/h 0km/h 3.3km/h
Racha viento: 17.2km/h - -
Viento- - SE
Presión: 1028.0 hPa 1025.2 hPa -
Precipitación: 2.8 mm    
 
 
Tabla de datos para Enero 23, 2022
Hora Temperatura Punto de rocio Presión Viento Velocidad viento Racha viento Humedad Intensidad lluvia(por hora) Nubes
00:04 9.4 °C 8.8 °C 1028.0 hPa NE 6.9 km/h 11.1 km/h 96% 0.0 mm
00:09 9.4 °C 8.8 °C 1028.0 hPa NE 6.8 km/h 8.7 km/h 96% 0.0 mm
00:14 9.3 °C 8.8 °C 1027.8 hPa ENE 5.8 km/h 9.3 km/h 96% 0.0 mm
00:19 9.3 °C 8.7 °C 1027.8 hPa ENE 5.7 km/h 9.3 km/h 96% 0.0 mm
00:24 9.3 °C 8.7 °C 1027.8 hPa Este 5 km/h 7.4 km/h 96% 0.0 mm
00:29 9.3 °C 8.7 °C 1027.7 hPa ENE 4.8 km/h 7.4 km/h 96% 0.0 mm
00:34 9.3 °C 8.7 °C 1027.7 hPa ENE 3.9 km/h 7.6 km/h 96% 0.0 mm
00:39 9.3 °C 8.7 °C 1027.7 hPa NE 3.8 km/h 5.8 km/h 96% 0.0 mm
00:44 9.3 °C 8.7 °C 1027.7 hPa NE 3.2 km/h 3.9 km/h 96% 0.0 mm
00:49 9.3 °C 8.7 °C 1027.7 hPa NE 3.1 km/h 3.9 km/h 96% 0.0 mm
00:54 9.3 °C 8.7 °C 1027.7 hPa North 2.3 km/h 7.4 km/h 96% 0.0 mm
00:59 9.3 °C 8.7 °C 1027.6 hPa NO 2.6 km/h 7.4 km/h 96% 0.0 mm
01:04 9.3 °C 8.7 °C 1027.6 hPa NO 3.9 km/h 5.8 km/h 96% 0.0 mm
01:09 9.3 °C 8.7 °C 1027.6 hPa ONO 3.9 km/h 7.4 km/h 96% 0.0 mm
01:14 9.2 °C 8.6 °C 1027.5 hPa ONO 3.9 km/h 7.4 km/h 96% 0.0 mm
01:19 9.2 °C 8.6 °C 1027.5 hPa ONO 3.9 km/h 5.8 km/h 96% 0.0 mm
01:24 9.2 °C 8.6 °C 1027.5 hPa ONO 3.9 km/h 5.6 km/h 96% 0.0 mm
01:29 9.2 °C 8.6 °C 1027.4 hPa ONO 3.6 km/h 3.7 km/h 96% 0.0 mm
01:34 9.2 °C 8.6 °C 1027.4 hPa ONO 2.3 km/h 5.8 km/h 96% 0.0 mm
01:39 9.2 °C 8.6 °C 1027.4 hPa ONO 2.3 km/h 5.6 km/h 96% 0.0 mm
01:44 9.2 °C 8.6 °C 1027.3 hPa NNO 2.9 km/h 9.5 km/h 96% 0.0 mm
01:49 9.1 °C 8.5 °C 1027.3 hPa NNE 3.2 km/h 9.5 km/h 96% 0.0 mm
01:54 9.1 °C 8.5 °C 1027.3 hPa NNE 5 km/h 9.3 km/h 96% 0.0 mm
01:59 9.1 °C 8.5 °C 1027.1 hPa NNE 5.1 km/h 8.4 km/h 96% 0.0 mm
02:04 9.1 °C 8.5 °C 1027.1 hPa NNE 5.8 km/h 8.4 km/h 96% 0.0 mm
02:09 9.1 °C 8.5 °C 1027.1 hPa North 5.7 km/h 8.4 km/h 96% 0.0 mm
02:14 9.1 °C 8.5 °C 1027.1 hPa North 5 km/h 5.6 km/h 96% 0.0 mm
02:19 9.1 °C 8.5 °C 1027.1 hPa North 4.6 km/h 4.7 km/h 96% 0.0 mm
02:24 9 °C 8.4 °C 1027.1 hPa North 2.3 km/h 4.7 km/h 96% 0.0 mm
02:29 9 °C 8.4 °C 1027.0 hPa NO 2.4 km/h 6.4 km/h 96% 0.0 mm
02:34 9 °C 8.4 °C 1027.0 hPa ONO 3.2 km/h 7.4 km/h 96% 0.0 mm
02:39 9 °C 8.4 °C 1027.0 hPa ONO 3.2 km/h 5.6 km/h 96% 0.0 mm
02:44 9 °C 8.4 °C 1026.9 hPa ONO 3.2 km/h 5.8 km/h 96% 0.0 mm
02:49 9 °C 8.4 °C 1026.9 hPa ONO 3.2 km/h 4.7 km/h 96% 0.0 mm
02:54 9 °C 8.4 °C 1026.9 hPa ONO 3.2 km/h 5.6 km/h 96% 0.0 mm
02:59 9 °C 8.4 °C 1026.9 hPa ONO 3.2 km/h 6.9 km/h 96% 0.0 mm
03:04 9 °C 8.4 °C 1026.9 hPa ONO 3.2 km/h 7.4 km/h 96% 0.0 mm
03:09 9 °C 8.4 °C 1026.9 hPa ONO 3.4 km/h 7.4 km/h 96% 0.0 mm
03:14 9 °C 8.4 °C 1026.9 hPa ONO 4.7 km/h 7.4 km/h 96% 0.0 mm
03:19 9.1 °C 8.5 °C 1026.9 hPa ONO 4.7 km/h 7.4 km/h 96% 0.0 mm
03:24 9.1 °C 8.5 °C 1026.9 hPa ONO 4.7 km/h 5.6 km/h 96% 0.0 mm
03:29 9.1 °C 8.5 °C 1026.8 hPa ONO 4.4 km/h 5.8 km/h 96% 0.0 mm
03:34 9.1 °C 8.5 °C 1026.8 hPa ONO 3.2 km/h 5.8 km/h 96% 0.0 mm
03:39 9.1 °C 8.5 °C 1026.8 hPa ONO 3.2 km/h 5.8 km/h 96% 0.0 mm
03:44 9.1 °C 8.5 °C 1026.7 hPa ONO 2.9 km/h 5.8 km/h 96% 0.0 mm
03:49 9.1 °C 8.5 °C 1026.7 hPa ONO 2.8 km/h 3.7 km/h 96% 0.0 mm
03:54 9.1 °C 8.5 °C 1026.7 hPa ONO 2.3 km/h   96% 0.0 mm
03:59 9.1 °C 8.5 °C 1026.6 hPa ONO 2.3 km/h 5.6 km/h 96% 0.0 mm
04:04 9 °C 8.4 °C 1026.6 hPa SO 2.3 km/h 7.4 km/h 96% 0.0 mm
04:09 9 °C 8.4 °C 1026.6 hPa SSO 2.5 km/h 7.4 km/h 96% 0.0 mm
04:14 8.9 °C 8.3 °C 1026.6 hPa SSO 3.9 km/h 4.7 km/h 96% 0.0 mm
04:19 8.9 °C 8.3 °C 1026.6 hPa SSO 3.6 km/h 5.6 km/h 96% 0.0 mm
04:24 8.9 °C 8.3 °C 1026.6 hPa SSO 2.3 km/h 3.7 km/h 96% 0.0 mm
04:29 8.9 °C 8.3 °C 1026.4 hPa SSO 1.9 km/h   96% 0.0 mm
04:34 8.9 °C 8.3 °C 1026.4 hPa Calm   3.7 km/h 96% 0.0 mm
04:39 8.9 °C 8.3 °C 1026.4 hPa Calm   3.9 km/h 96% 0.0 mm
04:44 8.9 °C 8.3 °C 1026.4 hPa Calm   4.7 km/h 96% 0.0 mm
04:49 8.9 °C 8.3 °C 1026.4 hPa SSO 0.4 km/h 4.7 km/h 96% 0.0 mm
04:54 8.9 °C 8.3 °C 1026.4 hPa SSO 2.9 km/h   96% 0.0 mm
04:59 8.9 °C 8.3 °C 1026.3 hPa SSO 2.3 km/h   96% 0.0 mm
05:04 9 °C 8.4 °C 1026.3 hPa Calm   4.7 km/h 96% 0.0 mm
05:09 8.9 °C 8.3 °C 1026.3 hPa SSO 0.3 km/h 3.9 km/h 96% 0.0 mm
05:14 8.9 °C 8.3 °C 1026.3 hPa SSO 2.3 km/h 4.7 km/h 96% 0.0 mm
05:19 8.9 °C 8.3 °C 1026.3 hPa SSO 2.3 km/h 3.9 km/h 96% 0.0 mm
05:24 8.9 °C 8.3 °C 1026.3 hPa SSO 2.3 km/h 2.9 km/h 96% 0.0 mm
05:29 8.9 °C 8.3 °C 1026.3 hPa SSO 2.3 km/h 5.6 km/h 96% 0.0 mm
05:34 8.8 °C 8.2 °C 1026.3 hPa SSO 2.3 km/h 3.9 km/h 96% 0.0 mm
05:39 8.8 °C 8.2 °C 1026.3 hPa SSO 2.4 km/h 5.6 km/h 96% 0.0 mm
05:44 8.8 °C 8.2 °C 1026.2 hPa SSO 2.9 km/h 3.7 km/h 96% 0.0 mm
05:49 8.8 °C 8.2 °C 1026.2 hPa SSO 2.5 km/h   96% 0.0 mm
05:54 8.8 °C 8.2 °C 1026.3 hPa Calm   6.4 km/h 96% 0.0 mm
05:59 8.8 °C 8.3 °C 1026.3 hPa SSO 0.6 km/h 7.4 km/h 96% 0.3 mm
06:04 8.8 °C 8.2 °C 1026.3 hPa SSO 2.9 km/h 6.4 km/h 96% 0.6 mm
06:09 8.8 °C 8.2 °C 1026.3 hPa SSO 3 km/h 7.4 km/h 96% 0.6 mm
06:14 8.8 °C 8.2 °C 1026.2 hPa SSO 3.9 km/h 5.8 km/h 96% 0.6 mm
06:19 8.8 °C 8.2 °C 1026.2 hPa SSO 3.8 km/h 5.6 km/h 96% 0.6 mm
06:24 8.8 °C 8.2 °C 1026.2 hPa SSO 3.2 km/h 5.6 km/h 96% 0.6 mm
06:29 8.8 °C 8.3 °C 1026.1 hPa SSO 3.1 km/h 3.7 km/h 96% 0.6 mm
06:34 8.9 °C 8.3 °C 1026.1 hPa SSO 2.3 km/h 4.7 km/h 96% 0.6 mm
06:39 8.9 °C 8.4 °C 1026.2 hPa SSO 2.3 km/h 5.6 km/h 96.7% 0.6 mm
06:44 8.9 °C 8.4 °C 1026.2 hPa SSO 2.3 km/h 3.9 km/h 96.8% 0.8 mm
06:49 8.9 °C 8.4 °C 1026.2 hPa SSO 2.3 km/h 7.6 km/h 97% 0.8 mm
06:54 8.9 °C 8.3 °C 1026.3 hPa SO 2.9 km/h 8.4 km/h 96.3% 0.8 mm
06:59 8.9 °C 8.3 °C 1026.3 hPa SO 3.3 km/h 7.4 km/h 96% 0.8 mm
07:04 8.9 °C 8.3 °C 1026.3 hPa SO 4.7 km/h 4.7 km/h 96.2% 0.5 mm
07:09 8.9 °C 8.4 °C 1026.6 hPa SO 4 km/h 3.7 km/h 97% 0.2 mm
07:14 8.9 °C 8.4 °C 1026.6 hPa Calm   3.9 km/h 97% 0.2 mm
07:19 8.9 °C 8.4 °C 1026.6 hPa NNE 0.3 km/h 6.4 km/h 96.7% 0.2 mm
07:24 8.8 °C 8.3 °C 1026.9 hPa NNE 2.3 km/h 7.6 km/h 96% 0.5 mm
07:29 8.8 °C 8.2 °C 1026.9 hPa NNE 2.6 km/h 8.4 km/h 96% 0.5 mm
07:34 8.7 °C 8.1 °C 1026.9 hPa NNE 4.7 km/h 7.4 km/h 96% 0.5 mm
07:39 8.7 °C 8.1 °C 1026.9 hPa NNE 4.4 km/h 4.7 km/h 96% 0.5 mm
07:44 8.6 °C 8 °C 1026.9 hPa NNE 3.2 km/h 3.7 km/h 96.1% 0.5 mm
07:49 8.6 °C 8.2 °C 1026.9 hPa NNE 3.1 km/h 4.7 km/h 97% 0.5 mm
07:54 8.7 °C 8.2 °C 1026.9 hPa NNE 2.3 km/h 4.7 km/h 97% 0.5 mm
07:59 8.7 °C 8.3 °C 1026.9 hPa NNE 2.4 km/h 5.6 km/h 97% 0.5 mm
08:04 8.7 °C 8.3 °C 1026.9 hPa NNE 2.9 km/h 5.6 km/h 97% 0.5 mm
08:09 8.7 °C 8.3 °C 1027.0 hPa NNE 2.9 km/h 4.7 km/h 97% 0.5 mm
08:14 8.8 °C 8.3 °C 1027.0 hPa NNE 2.9 km/h 3.7 km/h 97% 0.5 mm
08:19 8.8 °C 8.3 °C 1027.0 hPa NNE 2.5 km/h 3.9 km/h 97% 1.0 mm
08:24 8.8 °C 8.3 °C 1027.1 hPa Calm   4.7 km/h 97% 1.0 mm
08:29 8.8 °C 8.3 °C 1027.1 hPa ESE 0.5 km/h 7.4 km/h 97% 0.7 mm
08:34 8.9 °C 8.4 °C 1027.1 hPa SE 2.9 km/h 7.4 km/h 97% 0.7 mm
08:39 8.9 °C 8.4 °C 1027.1 hPa SE 3 km/h 4.7 km/h 97% 0.7 mm
08:44 8.9 °C 8.4 °C 1027.1 hPa SE 3.2 km/h 3.9 km/h 97% 0.7 mm
08:49 8.9 °C 8.4 °C 1027.1 hPa SE 2.8 km/h 1.9 km/h 97% 0.5 mm
08:54 8.9 °C 8.4 °C 1027.2 hPa Calm   3.7 km/h 97% 1.0 mm
08:59 8.9 °C 8.4 °C 1027.2 hPa SE 0.5 km/h 3.9 km/h 97% 1.0 mm
09:04 8.8 °C 8.3 °C 1027.2 hPa SE 2.3 km/h 4.7 km/h 97% 1.0 mm
09:09 8.8 °C 8.3 °C 1027.3 hPa SE 2.3 km/h 3.9 km/h 97% 1.0 mm
09:14 8.8 °C 8.3 °C 1027.3 hPa SE 2.3 km/h 3.9 km/h 97% 1.0 mm
09:19 8.8 °C 8.3 °C 1027.3 hPa SE 2.3 km/h 5.8 km/h 97% 0.5 mm
09:20 8.8 °C 8.3 °C 1027.3 hPa ESE 2.3 km/h 5.6 km/h 97% 0.5 mm
11:14 9.3 °C 8.8 °C 1027.9 hPa Sur 3.2 km/h 5.6 km/h 97% 0.7 mm
11:19 9.3 °C 8.8 °C 1027.9 hPa SO 3.2 km/h 4.7 km/h 97% 0.7 mm
11:24 9.4 °C 8.9 °C 1027.9 hPa Oeste 2.9 km/h 7.4 km/h 97% 0.7 mm
11:29 9.4 °C 8.9 °C 1027.9 hPa SO 3 km/h 7.6 km/h 97% 0.7 mm
11:34 9.5 °C 9 °C 1027.9 hPa SSO 3.9 km/h 7.6 km/h 97% 0.7 mm
11:39 9.4 °C 9 °C 1027.9 hPa SSO 4 km/h 7.4 km/h 97% 0.7 mm
11:44 9.4 °C 8.9 °C 1027.9 hPa SSO 4.7 km/h 5.8 km/h 97% 0.7 mm
11:49 9.4 °C 9 °C 1027.9 hPa Sur 4.5 km/h 5.8 km/h 97% 0.2 mm
11:54 9.4 °C 8.9 °C 1027.9 hPa Sur 3.2 km/h 3.9 km/h 97% 0.2 mm
11:59 9.4 °C 9 °C 1027.9 hPa SSE 3.1 km/h 4.7 km/h 97% 0.2 mm
12:04 9.5 °C 9.1 °C 1027.9 hPa ESE 2.3 km/h 5.8 km/h 97% 0.2 mm
12:09 9.4 °C 9 °C 1027.9 hPa ENE 2.3 km/h 5.8 km/h 97% 0.2 mm
12:14 9.4 °C 8.9 °C 1027.8 hPa NNE 2.3 km/h 7.4 km/h 97% 0.2 mm
12:19 9.4 °C 8.9 °C 1027.8 hPa North 2.4 km/h 7.4 km/h 97% 0.0 mm
12:24 9.3 °C 8.9 °C 1027.8 hPa North 3.2 km/h 5.8 km/h 97% 0.3 mm
12:29 9.3 °C 8.9 °C 1027.6 hPa North 3.2 km/h 5.8 km/h 97% 0.3 mm
12:34 9.4 °C 8.9 °C 1027.6 hPa North 3.2 km/h 3.7 km/h 97% 0.3 mm
12:39 9.4 °C 9 °C 1027.6 hPa North 2.9 km/h 3.9 km/h 97% 0.3 mm
12:44 9.5 °C 9.1 °C 1027.3 hPa Calm   5.8 km/h 97% 0.3 mm
12:49 9.6 °C 9.2 °C 1027.3 hPa North 0.3 km/h 5.8 km/h 97% 0.3 mm
12:54 9.6 °C 9.2 °C 1027.3 hPa NNO 2.9 km/h 5.8 km/h 97% 0.3 mm
12:59 9.7 °C 9.2 °C 1027.2 hPa NNE 2.8 km/h 5.6 km/h 97% 0.3 mm
13:04 9.8 °C 9.3 °C 1027.2 hPa NNE 2.3 km/h 7.4 km/h 97% 0.3 mm
13:09 9.8 °C 9.3 °C 1027.2 hPa North 2.4 km/h 8.4 km/h 97% 0.3 mm
13:14 9.7 °C 9.1 °C 1026.9 hPa NNO 3.2 km/h 7.4 km/h 96% 0.3 mm
13:19 9.6 °C 9.1 °C 1026.9 hPa NNO 3.2 km/h 7.6 km/h 96.5% 0.3 mm
13:24 9.6 °C 9.1 °C 1026.9 hPa NE 2.9 km/h 8.4 km/h 96.4% 0.3 mm
13:29 9.6 °C 9 °C 1026.8 hPa NNE 3.1 km/h 9.3 km/h 96% 0.0 mm
13:34 9.6 °C 9 °C 1026.8 hPa NNE 4.7 km/h 7.6 km/h 96% 0.0 mm
13:39 9.8 °C 9.1 °C 1026.8 hPa NNE 4.5 km/h 5.6 km/h 96% 0.0 mm
13:44 9.8 °C 9.2 °C 1026.6 hPa NE 2.9 km/h 7.4 km/h 96% 0.0 mm
13:49 9.9 °C 9.3 °C 1026.6 hPa NE 2.9 km/h 7.4 km/h 96% 0.0 mm
13:54 9.9 °C 9.3 °C 1026.6 hPa NE 2.9 km/h 5.6 km/h 96% 0.0 mm
13:59 10.1 °C 9.5 °C 1026.4 hPa NNE 2.4 km/h 4.7 km/h 95.8% 0.0 mm
14:04 10.2 °C 9.5 °C 1026.4 hPa Calm   3.9 km/h 95% 0.0 mm
14:09 10.4 °C 9.7 °C 1026.4 hPa Calm   5 km/h 95.7% 0.0 mm
14:14 10.6 °C 9.7 °C 1026.2 hPa Calm   5.6 km/h 94.5% 0.0 mm
14:19 10.6 °C 9.5 °C 1026.2 hPa SSE 0.3 km/h 7.4 km/h 93.3% 0.0 mm
14:24 10.8 °C 9.7 °C 1026.2 hPa ESE 3.2 km/h 9.5 km/h 92.9% 0.0 mm
14:29 10.8 °C 9.4 °C 1025.9 hPa NNE 3.3 km/h 9.3 km/h 90.9% 0.0 mm
14:34 11 °C 9.2 °C 1025.9 hPa NE 3.9 km/h 7.4 km/h 88.6% 0.0 mm
14:39 11.2 °C 9.1 °C 1025.9 hPa NE 3.9 km/h 7.4 km/h 87% 0.0 mm
14:44 11.2 °C 8.8 °C 1025.7 hPa ENE 3.9 km/h 8.4 km/h 84.9% 0.0 mm
14:49 11.3 °C 8.6 °C 1025.7 hPa NE 4 km/h 11.1 km/h 83.7% 0.0 mm
14:54 11.3 °C 8.3 °C 1025.7 hPa NNE 5 km/h 11.1 km/h 81.5% 0.0 mm
14:59 11.4 °C 8.2 °C 1025.6 hPa NNE 5.4 km/h 11.1 km/h 80.5% 0.0 mm
15:04 11.4 °C 8.2 °C 1025.6 hPa NE 7.6 km/h 9.3 km/h 80.6% 0.0 mm
15:09 11.6 °C 8.3 °C 1025.6 hPa NE 7.3 km/h 10 km/h 80.1% 0.0 mm
15:14 11.6 °C 8.3 °C 1025.4 hPa NE 5 km/h 11.9 km/h 80% 0.0 mm
15:19 11.7 °C 8.4 °C 1025.4 hPa NE 5.1 km/h 11.1 km/h 80% 0.0 mm
15:24 11.7 °C 8.3 °C 1025.4 hPa NE 5.8 km/h 17.2 km/h 79.5% 0.0 mm
15:29 11.6 °C 8.1 °C 1025.3 hPa NE 6.2 km/h 16.7 km/h 79% 0.0 mm
15:34 11.6 °C 8 °C 1025.3 hPa NNE 9.5 km/h 16.1 km/h 78.8% 0.0 mm
15:39 11.4 °C 7.5 °C 1025.3 hPa NE 9.4 km/h 16.7 km/h 77.1% 0.0 mm
15:44 11.4 °C 7.4 °C 1025.3 hPa NE 8.7 km/h 14.8 km/h 76.1% 0.0 mm
15:49 11.4 °C 7.3 °C 1025.3 hPa NE 8.7 km/h 14.8 km/h 76% 0.0 mm
15:54 11.4 °C 7.3 °C 1025.3 hPa NE 8.4 km/h 13 km/h 76% 0.0 mm
15:59 11.4 °C 7.5 °C 1025.2 hPa NE 8.4 km/h 13 km/h 76.9% 0.0 mm
16:04 11.4 °C 7.6 °C 1025.2 hPa NNE 8.4 km/h 12.2 km/h 77.6% 0.0 mm
16:09 11.4 °C 7.7 °C 1025.3 hPa NE 8.3 km/h 13.7 km/h 78% 0.0 mm
16:14 11.4 °C 7.7 °C 1025.3 hPa NNE 7.6 km/h 13.7 km/h 78% 0.0 mm
16:19 11.4 °C 7.7 °C 1025.3 hPa NE 7.7 km/h 14.8 km/h 78% 0.0 mm
16:24 11.4 °C 7.7 °C 1025.3 hPa NE 8.7 km/h 11.1 km/h 78% 0.0 mm
16:29 11.4 °C 7.8 °C 1025.3 hPa NE 8.4 km/h 14 km/h 78.7% 0.0 mm
16:34 11.4 °C 7.6 °C 1025.3 hPa NE 6.4 km/h 14.8 km/h 77.4% 0.0 mm
16:39 11.4 °C 7.5 °C 1025.3 hPa NE 6.6 km/h 13 km/h 77% 0.0 mm
16:44 11.4 °C 7.5 °C 1025.3 hPa NE 8.4 km/h 11.1 km/h 77% 0.0 mm
16:49 11.4 °C 7.4 °C 1025.3 hPa NNE 8.3 km/h 11.9 km/h 76.2% 0.0 mm
16:54 11.4 °C 7.3 °C 1025.4 hPa NNE 7.6 km/h 16.7 km/h 76% 0.0 mm
16:59 11.4 °C 7.3 °C 1025.4 hPa NNE 7.6 km/h 14 km/h 76% 0.0 mm
17:04 11.4 °C 7.3 °C 1025.4 hPa NE 7.6 km/h 16.7 km/h 76% 0.0 mm
17:09 11.4 °C 7.4 °C 1025.4 hPa NE 7.8 km/h 14.8 km/h 76.5% 0.0 mm
17:14 11.4 °C 7.5 °C 1025.3 hPa NE 10 km/h 13.7 km/h 77.2% 0.0 mm
17:19 11.4 °C 7.7 °C 1025.3 hPa NE 9.6 km/h 11.1 km/h 78% 0.0 mm
17:24 11.5 °C 8 °C 1025.3 hPa NE 6.9 km/h 11.1 km/h 78.9% 0.0 mm
17:29 11.4 °C 7.9 °C 1025.3 hPa NE 7 km/h 13 km/h 79% 0.0 mm
17:34 11.4 °C 7.9 °C 1025.3 hPa NE 7.6 km/h 13 km/h 79% 0.0 mm
17:39 11.4 °C 8 °C 1025.4 hPa NE 7.5 km/h 7.6 km/h 79.9% 0.0 mm
17:44 11.4 °C 8.1 °C 1025.4 hPa NNE 6.9 km/h 8.4 km/h 80% 0.0 mm
17:49 11.3 °C 8.1 °C 1025.4 hPa ENE 6.6 km/h 7.4 km/h 80.7% 0.0 mm
17:54 11.3 °C 8.2 °C 1025.5 hPa ENE 3.9 km/h 8.4 km/h 81% 0.0 mm
17:59 11.2 °C 8.1 °C 1025.5 hPa NE 4.2 km/h 13 km/h 81% 0.0 mm
18:04 11.2 °C 8 °C 1025.5 hPa NE 5.8 km/h 11.1 km/h 81% 0.0 mm
18:09 11.1 °C 8 °C 1025.6 hPa NE 5.9 km/h 9.5 km/h 81.5% 0.0 mm
18:14 11.1 °C 8.2 °C 1025.6 hPa NE 6.4 km/h 8.4 km/h 82% 0.0 mm
18:19 11 °C 8.1 °C 1025.6 hPa NE 6.3 km/h 9.3 km/h 82% 0.0 mm
18:24 11 °C 8 °C 1025.6 hPa NE 5 km/h 8.4 km/h 82% 0.0 mm
18:29 10.9 °C 8 °C 1025.6 hPa NE 4.9 km/h 7.4 km/h 82.1% 0.0 mm
18:34 10.9 °C 8.1 °C 1025.6 hPa NE 3.9 km/h 7.6 km/h 83% 0.0 mm
18:39 10.8 °C 8 °C 1025.7 hPa NE 4 km/h 7.6 km/h 83% 0.0 mm
18:44 10.8 °C 8 °C 1025.7 hPa NE 4.7 km/h 10 km/h 83% 0.0 mm
18:49 10.7 °C 7.9 °C 1025.7 hPa NE 4.8 km/h 11.1 km/h 82.7% 0.0 mm
18:54 10.6 °C 7.7 °C 1025.8 hPa NE 5.8 km/h 11.1 km/h 82% 0.0 mm
18:59 10.5 °C 7.6 °C 1025.8 hPa NE 5.6 km/h 11.1 km/h 82% 0.0 mm
19:04 10.5 °C 7.5 °C 1025.8 hPa ENE 5 km/h 7.6 km/h 82% 0.0 mm
19:09 10.4 °C 7.4 °C 1025.8 hPa ENE 4.9 km/h 9.5 km/h 82% 0.0 mm
19:14 10.4 °C 7.4 °C 1025.8 hPa NE 4.7 km/h 7.4 km/h 82% 0.0 mm
19:19 10.3 °C 7.3 °C 1025.8 hPa NE 4.6 km/h 6.4 km/h 82% 0.0 mm
19:24 10.3 °C 7.2 °C 1025.9 hPa NE 3.9 km/h 7.4 km/h 81.4% 0.0 mm
19:29 10.3 °C 7.2 °C 1025.9 hPa ENE 3.8 km/h 7.4 km/h 81% 0.0 mm
19:34 10.3 °C 7.2 °C 1025.9 hPa ENE 3.2 km/h 4.7 km/h 81% 0.0 mm
19:39 10.3 °C 7.2 °C 1026.1 hPa ENE 2.9 km/h 3.7 km/h 81% 0.0 mm
19:44 10.3 °C 7.2 °C 1026.1 hPa Calm   5.6 km/h 81.2% 0.0 mm
19:49 10.3 °C 7.2 °C 1026.1 hPa ENE 0.3 km/h 3.9 km/h 81% 0.0 mm
19:54 10.3 °C 7.2 °C 1026.2 hPa ENE 2.3 km/h 3.9 km/h 81% 0.0 mm
19:59 10.3 °C 7.1 °C 1026.2 hPa ENE 1.9 km/h   81% 0.0 mm
20:04 10.2 °C 7.1 °C 1026.2 hPa Calm     81% 0.0 mm
20:09 10.2 °C 7.2 °C 1026.3 hPa Calm   5.6 km/h 81.5% 0.0 mm
20:14 10.2 °C 7.3 °C 1026.3 hPa Calm   4.7 km/h 82% 0.0 mm
20:19 10.2 °C 7.3 °C 1026.3 hPa Calm   3.7 km/h 82% 0.0 mm
20:24 10.2 °C 7.3 °C 1026.3 hPa Calm   3.9 km/h 82% 0.0 mm
20:29 10.2 °C 7.4 °C 1026.3 hPa ENE 0.4 km/h 5.8 km/h 82.7% 0.0 mm
20:34 10.1 °C 7.4 °C 1026.3 hPa ENE 2.9 km/h 4.7 km/h 83% 0.0 mm
20:39 10.1 °C 7.3 °C 1026.3 hPa ENE 2.8 km/h 3.7 km/h 83% 0.0 mm
20:44 10.1 °C 7.3 °C 1026.3 hPa ENE 2.3 km/h   83% 0.0 mm
20:49 10.1 °C 7.3 °C 1026.3 hPa ENE 2 km/h   83% 0.0 mm
20:54 10.1 °C 7.3 °C 1026.5 hPa Calm   3.7 km/h 83% 0.0 mm
20:59 10.1 °C 7.3 °C 1026.5 hPa Calm     83% 0.0 mm
21:04 10.1 °C 7.3 °C 1026.5 hPa Calm     83% 0.0 mm
21:09 10.1 °C 7.3 °C 1026.5 hPa Calm     83% 0.0 mm
21:14 10 °C 7.2 °C 1026.5 hPa Calm     83% 0.0 mm
21:19 10 °C 7.2 °C 1026.5 hPa Calm     83% 0.0 mm
21:24 10 °C 7.2 °C 1026.5 hPa Calm     83% 0.0 mm
21:29 10 °C 7.3 °C 1026.5 hPa Calm     83% 0.0 mm
21:34 10.1 °C 7.3 °C 1026.5 hPa Calm     83% 0.0 mm
21:39 10.1 °C 7.3 °C 1026.5 hPa Calm     83% 0.0 mm
21:44 10 °C 7.2 °C 1026.5 hPa Calm     82.6% 0.0 mm
21:49 10 °C 7.2 °C 1026.5 hPa Calm   4.7 km/h 82.6% 0.0 mm
21:54 10.1 °C 7.3 °C 1026.5 hPa Calm   4.7 km/h 83% 0.0 mm
21:59 10 °C 7.2 °C 1026.5 hPa NNE 0.6 km/h 5.8 km/h 83% 0.0 mm
22:04 9.9 °C 7.3 °C 1026.5 hPa NNE 2.9 km/h 5.6 km/h 83.7% 0.0 mm
22:09 9.9 °C 7.4 °C 1026.5 hPa NNO 2.9 km/h 5.6 km/h 84.2% 0.0 mm
22:14 9.9 °C 7.5 °C 1026.5 hPa NNO 2.9 km/h 5.8 km/h 85% 0.0 mm
22:19 9.8 °C 7.5 °C 1026.5 hPa NNO 2.9 km/h 4.7 km/h 85.6% 0.0 mm
22:24 9.8 °C 7.6 °C 1026.5 hPa NNO 2.9 km/h 4.7 km/h 86% 0.0 mm
22:29 9.8 °C 7.5 °C 1026.5 hPa NNO 2.8 km/h 4.7 km/h 86% 0.0 mm
22:34 9.7 °C 7.4 °C 1026.5 hPa NNO 2.3 km/h 6.9 km/h 86% 0.0 mm
22:39 9.7 °C 7.5 °C 1026.5 hPa NNO 2.4 km/h 7.4 km/h 86.3% 0.0 mm
22:44 9.7 °C 7.7 °C 1026.4 hPa NNO 3.2 km/h 4.7 km/h 87% 0.0 mm
22:49 9.7 °C 7.7 °C 1026.4 hPa NNO 3.1 km/h 3.7 km/h 87% 0.0 mm
22:54 9.6 °C 7.6 °C 1026.4 hPa NNO 2.3 km/h 3.7 km/h 87% 0.0 mm
22:59 9.6 °C 7.6 °C 1026.4 hPa NNO 1.8 km/h   87% 0.0 mm
23:04 9.6 °C 7.6 °C 1026.4 hPa Calm   5.6 km/h 87% 0.0 mm
23:09 9.6 °C 7.6 °C 1026.5 hPa NNO 0.3 km/h 3.7 km/h 87% 0.0 mm
23:14 9.6 °C 7.6 °C 1026.5 hPa NNO 2.3 km/h 3.7 km/h 87% 0.0 mm
23:19 9.6 °C 7.5 °C 1026.5 hPa NNO 2 km/h   87% 0.0 mm
23:24 9.5 °C 7.5 °C 1026.5 hPa Calm     87.5% 0.0 mm
23:29 9.5 °C 7.6 °C 1026.5 hPa Calm     88% 0.0 mm
23:34 9.4 °C 7.6 °C 1026.5 hPa Calm   2.9 km/h 88% 0.0 mm
23:39 9.4 °C 7.5 °C 1026.5 hPa Calm   3.9 km/h 88% 0.0 mm
23:44 9.5 °C 7.6 °C 1026.4 hPa Calm   5 km/h 88% 0.0 mm
23:49 9.4 °C 7.5 °C 1026.4 hPa NNO 0.4 km/h 7.4 km/h 88% 0.0 mm
23:54 9.4 °C 7.5 °C 1026.5 hPa NO 3.2 km/h 7.6 km/h 88% 0.0 mm
23:59 9.4 °C 7.5 °C 1026.5 hPa ONO 3.5 km/h 7.4 km/h 88% 0.0 mm
Murcia-Puente Tocinos, Espa?a
Compliments of Weather Underground - 3 mb

La estación de MeteoMurcia.com, publica sus datos en los siguientes proyectos:

Weather Underground PWS IMURCIAP2 Meteoclimatic www.awekas.at

W3Counter
Web Analytics